Weather History for K9A4 - February, 2013

Change the Weather History Date:

Tuesday, February 26, 2013

  Actual Average (KMSL) Record (KMSL)
Temperature  
Mean Temperature 46 °F 48 °F  
Max Temperature 50 °F 59 °F 80 °F (1918)
Min Temperature 41 °F 38 °F 14 °F (1894)
Degree Days  
Heating Degree Days 20 17  
Month to date heating degree days 522  
Since 1 July heating degree days 2502  
Cooling Degree Days 0 0  
Month to date cooling degree days 0  
Year to date cooling degree days 0  
Moisture  
Dew Point 38 °F    
Average Humidity 77    
Maximum Humidity 100    
Minimum Humidity 57    
Precipitation  
Precipitation 0.00 in 0.17 in 2.63 in (1987)
Month to date precipitation 4.32  
Year to date precipitation 8.93  
Snow  
Snow 0.00 in - - ()
Month to date snowfall  
Since 1 July snowfall  
Snow Depth -    
Sea Level Pressure  
Sea Level Pressure 29.61 in    
Wind  
Wind Speed 17 mph (SW)    
Max Wind Speed 26 mph    
Max Gust Speed 34 mph    
Visibility 10 miles    
Events Rain    
T = Trace of Precipitation, MM = Missing Value Source: NWS Daily Summary

Daily Weather History Graph

Daily Weather History Graph

Search for Another Location

Airport or City:

Trip Planner

Search our weather history database for the weather conditions in past years. The results will help you decide how hot, cold, wet, or windy it might be!

Date:

Astronomy

Feb. 26, 2013 Rise Set
Actual Time 6:21 AM CST 5:42 PM CST
Civil Twilight 5:56 AM CST 6:08 PM CST
Nautical Twilight 5:27 AM CST 6:37 PM CST
Astronomical Twilight 4:58 AM CST 7:06 PM CST
Moon 6:53 PM CST (2/26) 6:28 AM CST (2/26)
Length of Visible Light 12h 11m
Length of Day
11h 20m
Full, 99% of the Moon is Illuminated
Feb 26
Full
Mar 4
Last Quarter
Mar 11
New
Mar 19
First Quarter
Mar 27
Full

Hourly Weather History & Observations

Time (CST) Temp. Windchill Dew Point Humidity Pressure Visibility Wind Dir Wind Speed Gust Speed Precip Events Conditions
12:15 AM 50.0 °F - 44.6 °F 82% 29.49 in 10.0 mi SE 26.5 mph 32.2 mph N/A   Overcast
12:35 AM 50.0 °F - 44.6 °F 82% 29.47 in 10.0 mi SE 25.3 mph 34.5 mph N/A   Overcast
12:55 AM 50.0 °F - 44.6 °F 82% - - North - - N/A   Unknown
2:15 AM 50.0 °F - 48.2 °F 94% 29.49 in - South 15.0 mph - N/A   Unknown
2:35 AM 50.0 °F - 48.2 °F 94% 29.48 in 10.0 mi South 16.1 mph 24.2 mph N/A   Overcast
2:55 AM 50.0 °F - 48.2 °F 94% 29.48 in 10.0 mi SSE 17.3 mph 23.0 mph N/A Rain Light Rain
3:15 AM 50.0 °F - 48.2 °F 94% 29.46 in 10.0 mi SSE 18.4 mph - N/A   Overcast
3:35 AM 50.0 °F - 48.2 °F 94% 29.45 in 10.0 mi SSE 19.6 mph 25.3 mph N/A   Overcast
4:15 AM 50.0 °F - 48.2 °F 94% 29.45 in 10.0 mi SSE 17.3 mph 23.0 mph N/A   Overcast
4:35 AM 50.0 °F - 48.2 °F 94% 29.44 in 10.0 mi SSE 16.1 mph 25.3 mph N/A   Overcast
4:55 AM 50.0 °F - 48.2 °F 94% 29.44 in 10.0 mi SSE 18.4 mph 23.0 mph N/A   Overcast
5:15 AM 50.0 °F - 48.2 °F 94% 29.44 in 10.0 mi SSE 18.4 mph 25.3 mph N/A   Overcast
5:35 AM 50.0 °F - 48.2 °F 94% 29.44 in 10.0 mi SSE 17.3 mph 24.2 mph N/A   Overcast
5:55 AM 50.0 °F - 48.2 °F 94% 29.47 in 5.0 mi South 10.4 mph - N/A Rain Rain
6:15 AM 50.0 °F - 48.2 °F 94% 29.46 in 10.0 mi South 10.4 mph - N/A   Overcast
6:35 AM 50.0 °F - 48.2 °F 94% 29.47 in 10.0 mi South 8.1 mph - N/A Rain Rain
6:55 AM 50.0 °F - 50.0 °F 100% 29.47 in 10.0 mi South 4.6 mph - N/A   Light Drizzle
7:15 AM 50.0 °F - 50.0 °F 100% 29.47 in 10.0 mi SSE 5.8 mph - N/A   Overcast
7:35 AM 50.0 °F - 50.0 °F 100% 29.47 in 10.0 mi South 3.5 mph - N/A   Overcast
8:15 AM 44.6 °F 38.4 °F 39.2 °F 81% 29.51 in 10.0 mi SW 12.7 mph 17.3 mph N/A   Overcast
8:55 AM 44.6 °F 38.8 °F 35.6 °F 71% 29.53 in 10.0 mi WSW 11.5 mph 18.4 mph N/A   Overcast
9:35 AM 46.4 °F 40.1 °F 37.4 °F 71% 29.54 in 10.0 mi WSW 15.0 mph 23.0 mph N/A   Overcast
9:55 AM 50.0 °F - 37.4 °F 62% 29.55 in 10.0 mi West 21.9 mph 26.5 mph N/A   Overcast
10:15 AM 48.2 °F - 35.6 °F 62% 29.55 in 10.0 mi WSW 21.9 mph 25.3 mph N/A   Mostly Cloudy
10:35 AM 46.4 °F 40.1 °F 35.6 °F 66% 29.56 in 10.0 mi WSW 15.0 mph - N/A   Overcast
10:55 AM 46.4 °F 38.7 °F 33.8 °F 62% 29.58 in 10.0 mi WSW 20.7 mph 29.9 mph N/A   Overcast
11:35 AM 46.4 °F 39.0 °F 33.8 °F 62% 29.59 in 10.0 mi SW 19.6 mph 31.1 mph N/A   Overcast
11:55 AM 46.4 °F 40.1 °F 33.8 °F 62% 29.58 in 10.0 mi WSW 15.0 mph 25.3 mph N/A   Overcast
12:15 PM 46.4 °F 39.0 °F 32.0 °F 57% 29.58 in 10.0 mi SW 19.6 mph 32.2 mph N/A   Overcast
12:35 PM 46.4 °F 40.1 °F 33.8 °F 62% 29.57 in 10.0 mi SW 15.0 mph 28.8 mph N/A   Overcast
1:15 PM 44.6 °F 37.4 °F 33.8 °F 66% 29.60 in 10.0 mi SW 16.1 mph 26.5 mph N/A   Overcast
1:35 PM 44.6 °F 36.6 °F 35.6 °F 71% 29.60 in 10.0 mi SW 19.6 mph 26.5 mph N/A   Drizzle
1:55 PM 44.6 °F 38.4 °F 35.6 °F 71% 29.60 in 10.0 mi SW 12.7 mph - N/A   Light Drizzle
2:15 PM 44.6 °F 37.8 °F 35.6 °F 71% 29.60 in 10.0 mi WSW 15.0 mph 27.6 mph N/A Rain Light Rain
2:35 PM 44.6 °F 37.2 °F 37.4 °F 76% 29.61 in 10.0 mi SW 17.3 mph 29.9 mph N/A   Overcast
2:55 PM 44.6 °F 36.1 °F 35.6 °F 71% 29.62 in 10.0 mi SW 21.9 mph 28.8 mph N/A   Overcast
3:15 PM 44.6 °F 38.1 °F 35.6 °F 71% 29.63 in 10.0 mi SW 13.8 mph 24.2 mph N/A   Overcast
3:35 PM 44.6 °F 37.8 °F 35.6 °F 71% 29.64 in 10.0 mi SW 15.0 mph 20.7 mph N/A   Overcast
3:55 PM 44.6 °F 35.7 °F 33.8 °F 66% 29.65 in 10.0 mi WSW 24.2 mph 33.4 mph N/A   Overcast
4:15 PM 42.8 °F 33.5 °F 33.8 °F 70% 29.65 in 10.0 mi WSW 23.0 mph 28.8 mph N/A   Overcast
4:35 PM 42.8 °F 35.8 °F 33.8 °F 70% 29.65 in 10.0 mi WSW 13.8 mph 24.2 mph N/A   Overcast
4:55 PM 41.0 °F 31.9 °F 35.6 °F 81% 29.67 in 5.0 mi WSW 19.6 mph 28.8 mph N/A   Drizzle
5:15 PM 42.8 °F 36.2 °F 35.6 °F 76% 29.68 in 10.0 mi WSW 12.7 mph 20.7 mph N/A Rain Light Rain
5:35 PM 41.0 °F 33.5 °F 33.8 °F 76% 29.69 in 7.0 mi West 13.8 mph - N/A   Drizzle
5:55 PM 42.8 °F 37.0 °F 33.8 °F 70% 29.70 in 10.0 mi WSW 10.4 mph 20.7 mph N/A   Overcast
6:15 PM 42.8 °F 36.6 °F 33.8 °F 70% 29.70 in 10.0 mi WSW 11.5 mph - N/A   Overcast
6:35 PM 42.8 °F 36.6 °F 32.0 °F 66% 29.72 in 10.0 mi SW 11.5 mph 18.4 mph N/A   Overcast
6:55 PM 42.8 °F 35.4 °F 32.0 °F 66% 29.72 in 10.0 mi WSW 15.0 mph 23.0 mph N/A   Overcast
7:15 PM 42.8 °F 37.0 °F 33.8 °F 70% 29.73 in 10.0 mi WSW 10.4 mph 18.4 mph N/A   Overcast
7:35 PM 42.8 °F 35.8 °F 33.8 °F 70% 29.75 in 10.0 mi WSW 13.8 mph 19.6 mph N/A   Overcast
7:55 PM 41.0 °F 33.1 °F 33.8 °F 76% 29.75 in 10.0 mi WSW 15.0 mph 18.4 mph N/A   Overcast
8:15 PM 41.0 °F 32.8 °F 33.8 °F 76% 29.76 in 10.0 mi WSW 16.1 mph - N/A   Overcast
8:35 PM 41.0 °F 35.2 °F 33.8 °F 76% 29.78 in 10.0 mi West 9.2 mph 18.4 mph N/A   Overcast
8:55 PM 41.0 °F 35.8 °F 33.8 °F 76% 29.78 in 10.0 mi WSW 8.1 mph - N/A   Overcast
9:15 PM 41.0 °F 36.4 °F 33.8 °F 76% 29.78 in 10.0 mi WSW 6.9 mph - N/A   Overcast
9:35 PM 41.0 °F 34.7 °F 33.8 °F 76% 29.79 in 10.0 mi WSW 10.4 mph - N/A   Overcast
9:55 PM 41.0 °F 35.2 °F 33.8 °F 76% 29.79 in 10.0 mi WSW 9.2 mph - N/A   Overcast
10:15 PM 41.0 °F 34.7 °F 32.0 °F 70% 29.80 in 10.0 mi West 10.4 mph 18.4 mph N/A   Overcast
10:35 PM 41.0 °F 34.7 °F 32.0 °F 70% 29.80 in 10.0 mi WSW 10.4 mph 21.9 mph N/A   Overcast
10:55 PM 41.0 °F 33.5 °F 32.0 °F 70% 29.81 in 10.0 mi West 13.8 mph - N/A   Overcast
11:15 PM 41.0 °F 33.1 °F 32.0 °F 70% 29.81 in 10.0 mi WSW 15.0 mph 20.7 mph N/A   Overcast
11:35 PM 41.0 °F 34.3 °F 32.0 °F 70% 29.81 in 10.0 mi West 11.5 mph 19.6 mph N/A   Overcast
11:55 PM 41.0 °F 32.8 °F 32.0 °F 70% 29.82 in 10.0 mi West 16.1 mph - N/A   Overcast